Simultaneous Nadir Overpasses (SNOs) Predictions

Prediction of SNOs between METOP-B and NOAA-19 Satellite Orbit:

Table of predicted SNOs for the next 14.0 days since TLE Epoch: 4/10/2020
Index Date (METOP-B) Time (METOP-B) Lat,Lon (METOP-B) SZA (METOP-B ) Date (NOAA-19) Time (NOAA-19) Lat,Lon (NOAA-19) SZA (NOAA-19 ) Distance(km) Time Diff (sec)
1 04/16/2020 13:17:09 79.90, 2.08 70.17 04/16/2020 13:16:07 79.93, 2.06 70.18 2.56 62
2 04/16/2020 14:07:50 -79.90, 169.37 109.85 04/16/2020 14:07:05 -79.91, 169.50 109.84 2.88 45
3 04/16/2020 14:58:30 79.92, -23.08 70.18 04/16/2020 14:58:07 79.91, -23.24 70.15 3.24 23
4 04/16/2020 15:49:11 -79.92, 144.20 109.85 04/16/2020 15:49:05 -79.90, 144.19 109.87 2.27 6
5 04/16/2020 16:39:52 79.91, -48.54 70.13 04/16/2020 16:40:07 79.90, -48.54 70.12 1.64 15
6 04/16/2020 17:30:33 -79.91, 118.75 109.89 04/16/2020 17:31:06 -79.91, 118.58 109.89 3.24 33
7 04/16/2020 18:21:14 79.90, -74.00 70.09 04/16/2020 18:22:08 79.90, -74.15 70.10 2.89 54




NCC Satellite Simultaneous Nadir Overpasses (SNOs) Prediction Service
